Location: Robert Ferguson Observatory
(38.4385°N, 122.5078°W)
Time: 04:13:44
(UTC-07:00)

Daily predictions for brighter satellites

Satellite Brightness Start Highest point End
(mag) Time Altitude Azimuth Time Altitude Azimuth Time Altitude Azimuth
CENTAUR R/B 3.9 03:30:50 33° N 03:30:50 33° N 03:34:51 10° NNE
ARIANE 5 R/B 4.4 03:52:46 10° N 03:54:43 24° N 03:54:43 24° N
SL-16 R/B 4.1 04:03:34 23° NNW 04:03:34 23° NNW 04:05:45 10° NNW
Cosmos 2074 Rocket 4.2 04:12:55 10° N 04:19:09 66° E 04:20:26 53° SE
Cosmos 2322 Rocket 3.7 04:22:34 25° NNW 04:22:34 25° NNW 04:25:30 10° N
SL-16 R/B 3.7 04:27:53 25° NNW 04:27:53 25° NNW 04:31:00 10° N
Cosmos 2237 4.4 04:30:31 66° SE 04:30:44 67° ESE 04:36:27 10° NNE
Okean O Rocket 2.8 04:27:06 10° NNE 04:31:16 37° E 04:31:30 37° ESE
Resurs 1-4 Rocket 3.8 04:28:08 10° N 04:30:22 22° NNW 04:30:22 22° NNW
Cosmos 2219 Rocket 3.8 04:30:15 19° SSE 04:33:06 29° ESE 04:37:50 10° NE
COSMOS 2428 3.2 04:34:00 49° SE 04:34:54 55° ESE 04:40:28 10° NNE
CZ-2D R/B 3.7 04:30:47 10° N 04:33:28 25° NNW 04:33:28 25° NNW
Lacrosse 4 Rocket 3.7 04:40:03 16° SE 04:40:03 16° SE 04:41:02 10° SE
Cosmos 1844 Rocket 4.0 04:36:25 10° N 04:41:37 38° ENE 04:46:45 10° SE
Cosmos 1455 Rocket 4.3 04:38:13 10° N 04:40:51 36° N 04:40:51 36° N
DELTA 2 R/B (1) 3.5 04:43:29 79° SE 04:43:29 79° SE 04:48:55 10° ENE
Cosmos 2360 Rocket 2.6 04:51:25 46° NW 04:51:25 46° NW 04:56:23 10° NNE
Cosmos 1340 4.3 04:54:02 27° N 04:54:02 27° N 04:55:51 10° N
Cosmos 2184 Rocket 3.9 04:49:42 10° NNW 04:55:51 66° W 04:57:25 49° SSW
ADEOS II 2.5 04:51:33 10° NNE 04:56:46 61° E 04:59:40 26° S
Cosmos 2237 Rocket 4.0 04:56:21 10° SSE 05:01:08 29° ESE 05:05:58 10° NE
Gblst 52 Del rocket 4.4 05:01:40 23° NW 05:05:21 75° NE 05:11:43 10° ESE
Cosmos 1536 Rocket 3.6 05:07:23 61° NW 05:07:23 61° NW 05:11:29 10° N
ATLAS 5 CENTAUR R/B 4.0 05:04:30 10° NNW 05:09:55 34° NE 05:15:42 10° ESE
Cosmos 2208 Rocket 4.0 05:09:58 49° SW 05:11:23 72° WNW 05:16:51 10° NNE
ADEOS Rocket 4.2 05:07:56 10° NNW 05:11:06 21° NW 05:11:06 21° NW
Cosmos 1743 2.9 05:08:17 10° N 05:12:08 68° E 05:15:26 13° SSE
MTI 4.1 05:13:10 67° E 05:13:13 68° ENE 05:16:30 10° N
OAO 3 Copernicus 4.4 05:13:43 52° SW 05:14:31 59° S 05:19:28 10° E
CZ-4B R/B 2.9 05:17:18 10° N 05:20:24 50° NW 05:20:24 50° NW
PSLV R/B 3.4 05:16:40 10° N 05:21:02 85° W 05:22:57 33° SSW
USA 215 3.3 05:14:30 10° SE 05:21:04 86° NE 05:27:39 10° NW
PAYLOAD B 4.1 05:15:41 10° N 05:21:18 75° WNW 05:24:48 24° SSW
Cosmos 2333 Rocket 2.6 05:17:45 14° S 05:22:35 62° ESE 05:28:14 10° NNE
Meteor 1-31 Rocket 4.3 05:19:09 10° NNE 05:22:39 35° E 05:26:09 10° SSE
EO 1 Del DPAF 3.1 05:24:03 19° S 05:26:44 70° W 05:30:36 10° NNW
Okean 1-7 Rocket 3.9 05:23:24 10° S 05:27:54 70° E 05:32:23 10° NNE
Cosmos 2154 Rocket 3.9 05:23:43 10° NNW 05:29:51 67° W 05:35:59 10° S
USA 229 DEB 3.7 05:25:44 22° SSW 05:30:27 88° ESE 05:37:25 10° NNE
USA 229 3.7 05:25:48 22° SSW 05:30:33 87° ESE 05:37:31 10° NNE
Meteor PRIRODA 3.8 05:31:44 10° NNE 05:35:30 75° E 05:38:58 12° S
Hubble Space Telescope 3.1 05:35:11 11° S 05:36:34 12° SSE 05:38:20 10° SE
Tiangong 2 0.9 05:38:49 57° W 05:39:21 78° SSW 05:42:28 10° ESE
NOSS 3-1 (C) 4.4 05:40:13 10° S 05:45:35 44° ESE 05:51:28 10° NE
GPS 2-04 Rocket1 4.0 05:45:09 20° SSW 05:46:57 30° SSE 05:50:20 10° E
Cosmos 468 Rocket 3.9 05:42:39 12° SSW 05:47:30 79° WNW 05:52:45 10° NNE
SL-8 Rocket 4.1 05:43:17 10° N 05:49:32 78° E 05:55:41 10° S
Cosmos 2181 Rocket 3.9 05:43:26 10° SSW 05:49:35 70° W 05:55:54 10° N
Cosmos 1898 Rocket 3.5 05:45:04 10° NNW 05:50:17 88° ENE 05:55:27 10° SSE
Cosmos 1844 3.6 05:44:45 10° NNW 05:50:31 76° WSW 05:56:10 10° SSE
ERS-2 2.0 05:50:33 10° N 05:54:15 74° WNW 05:57:55 10° SSW
CZ-4B R/B 3.7 05:52:17 10° N 05:57:30 40° WNW 06:02:06 13° SW
SL-16 R/B 3.8 05:52:32 10° S 05:57:37 36° ESE 06:02:45 10° NE
Cosmos 1238 Rocket 3.8 06:00:19 17° WNW 06:00:19 17° WNW 06:01:52 10° NNW
CZ-2C R/B 4.4 06:03:15 10° SSW 06:07:18 31° W 06:11:19 10° NW
Okean O Rocket 3.1 06:04:12 10° NNW 06:07:20 19° WNW 06:08:58 16° W
Cosmos 1980 3.7 06:02:21 10° SSW 06:07:58 69° WNW 06:13:38 10° NNE
Cosmos 1437 2.7 06:05:15 10° SSW 06:08:30 68° W 06:11:47 10° N
COSMO-SKYMED 1 3.6 06:05:14 10° SSE 06:09:25 51° ENE 06:13:38 10° N
Cosmos 2341 Rocket 4.3 06:04:53 10° NNW 06:10:42 42° W 06:16:27 10° SSW
GENESIS II 4.4 06:07:33 13° SW 06:11:07 58° NW 06:15:08 10° NNE
Cosmos 1025 Rocket 3.3 06:07:18 10° SSW 06:11:30 46° W 06:15:45 10° N
Cosmos 858 Rocket 4.5 06:07:08 10° NNW 06:12:23 67° WSW 06:17:33 10° S
Cosmos 1726 Rocket 3.6 06:10:16 10° N 06:14:45 86° E 06:19:12 10° S
Cosmos 1763 Rocket 3.4 06:09:43 10° SSW 06:14:47 86° WNW 06:19:56 10° NNE
Lacrosse 4 Rocket 3.5 06:16:41 11° SW 06:16:41 11° SW 06:16:55 10° SW
Cosmos 2218 Rocket 4.0 06:10:28 10° N 06:16:51 77° W 06:23:08 10° S
Cosmos 2219 Rocket 2.8 06:12:02 11° SW 06:16:52 36° WNW 06:22:02 10° N
Meteor 1-28 Rocket 4.4 06:14:28 10° SSE 06:18:06 47° ENE 06:21:48 10° N
Cosmos 1937 Rocket 3.5 06:14:02 10° NNW 06:19:20 71° WSW 06:24:34 10° S
COSMOS 2428 4.1 06:16:03 13° W 06:19:32 21° NW 06:23:49 10° N
SJ-6F 4.4 06:16:14 10° N 06:20:16 63° WNW 06:24:17 10° SSW
Okean-O 2.9 06:17:19 10° N 06:21:35 47° WNW 06:25:50 10° SW
Cosmos 1892 Rocket 3.5 06:18:24 10° SSW 06:22:42 72° W 06:27:05 10° N
Meteor 2-9 Rocket 4.5 06:17:49 10° NNW 06:23:11 45° W 06:28:23 10° SSW
USA 116 4.5 06:21:16 10° SSW 06:25:09 38° W 06:29:32 10° NNW
Cosmos 1844 Rocket 3.5 06:20:40 10° NW 06:25:16 27° WSW 06:29:52 10° SSW
BREEZE M DEB (TANK) 3.0 06:19:14 10° NW 06:27:48 76° NNE 06:30:49 10° ESE
Cosmos 841 Rocket 3.4 06:23:40 10° SSW 06:28:49 79° WNW 06:33:59 10° NNE
NOSS 0 Rocket 4.3 06:22:56 10° SW 06:28:50 46° WNW 06:34:45 10° NNE
DELTA 2 R/B (1) 3.7 06:24:22 10° W 06:29:55 79° N 06:35:29 10° E
Aureole 2 Rocket 3.4 06:28:40 10° SW 06:31:52 28° WNW 06:34:52 10° N
Cosmos 1441 Rocket 3.2 06:28:05 10° SSW 06:32:02 75° W 06:36:02 10° N
NOAA 6 4.0 06:27:56 10° N 06:33:00 64° WNW 06:38:03 10° SSW
Radarsat Rocket 3.9 06:29:44 10° NNE 06:35:40 83° WNW 06:41:30 10° SSW
ADEOS II 3.7 06:32:46 10° NNW 06:35:56 16° WNW 06:39:07 10° W
Cosmos 1515 3.7 06:32:48 10° SSW 06:36:36 60° W 06:40:26 10° N
Cosmos 405 Rocket 3.8 06:35:01 10° SW 06:38:31 28° WNW 06:42:01 10° NNW
Cosmos 1346 2.8 06:36:49 10° SSW 06:39:38 66° W 06:42:28 10° N
Cosmos 1666 4.4 06:37:31 10° NW 06:39:47 15° W 06:42:02 10° WSW
Cosmos 2278 Rocket 2.4 06:36:00 10° NNW 06:41:28 50° WSW 06:46:54 10° S
